EW8157 Weather Reports


Display with metric or nautical units.
time (UTC)temp
F
wind
direction
speed
MPH
gust
MPH
rain 1hr
in
rain 24hr
in
rain mn
in
humidity
%
barometer
mb
20260507000017 60 0.0 3.0 0.00 0.58 0.58 89 1006.0
20260506233036 61 0.0 0.0 0.00 0.58 0.58 91 1005.4
20260506230017 61 0.0 0.0 0.03 0.58 0.58 91 1005.1
20260506223016 62 0.0 0.0 0.07 0.58 0.58 91 1005.1
20260506220016 63 0.0 0.0 0.04 0.55 0.55 90 1004.8
20260506213016 64 0.0 0.0 0.00 0.51 0.51 90 1004.3
20260506210016 63 0.0 2.0 0.00 0.51 0.51 91 1004.1
20260506203017 62 0.0 2.0 0.00 0.51 0.51 93 1004.1
20260506200037 61 0.0 2.0 0.00 0.51 0.51 93 1004.2
20260506193036 61 0.0 0.0 0.00 0.51 0.51 93 1004.2
20260506190019 61 0.0 0.0 0.01 0.51 0.51 93 1004.6
20260506183120 60 0.0 1.0 0.02 0.51 0.51 92 1004.6
20260506180017 60 0.0 0.0 0.09 0.50 0.50 92 1004.9
20260506173017 60 0.0 0.0 0.14 0.49 0.49 92 1004.9
20260506170017 60 0.0 1.0 0.09 0.41 0.41 92 1005.1
20260506163017 60 0.0 4.0 0.04 0.35 0.35 92 1005.2
20260506160017 60 203 1.0 4.0 0.09 0.32 0.32 91 1005.1
20260506153017 60 203 1.0 4.0 0.14 0.31 0.31 91 1005.2
20260506150017 60 203 1.0 4.0 0.13 0.23 0.23 90 1005.8
20260506143016 60 0.0 3.0 0.10 0.17 0.17 90 1005.3
20260506140059 60 0.0 1.0 0.05 0.10 0.10 90 1005.6
20260506133018 60 0.0 0.0 0.04 0.07 0.07 89 1005.7
20260506130016 60 0.0 0.0 0.04 0.05 0.05 86 1006.1
20260506123016 61 0.0 0.0 0.03 0.03 0.03 84 1006.2
20260506120017 62 0.0 0.0 0.01 0.01 0.01 79 1005.8
20260506113016 62 0.0 4.0 0.00 0.00 0.00 76 1005.7
20260506110016 63 0.0 3.0 0.00 0.00 0.00 74 1005.6
20260506103016 62 0.0 4.0 0.00 0.00 0.00 72 1005.1
20260506100017 62 0.0 0.0 0.00 0.00 0.00 70 1005.0
20260506093019 62 0.0 0.0 0.00 0.00 0.00 64 1005.2
20260506090018 63 0.0 0.0 0.00 0.00 0.00 63 1005.2
20260506083039 63 0.0 0.0 0.00 0.00 0.00 60 1005.3
20260506073018 64 0.0 0.0 0.00 0.00 0.00 58 1005.4
20260506043017 65 0.0 0.0 0.00 0.10 0.00 54 1006.5
20260506040016 66 0.0 0.0 0.00 0.10 0.10 53 1006.8
20260506033017 67 0.0 0.0 0.00 0.10 0.10 49 1006.6
20260506030016 68 0.0 0.0 0.00 0.10 0.10 46 1006.6
20260506023036 69 0.0 0.0 0.00 0.10 0.10 46 1006.6
20260506020016 70 0.0 1.0 0.00 0.10 0.10 45 1006.6
20260506013016 71 0.0 0.0 0.00 0.10 0.10 43 1006.1
20260506010017 72 0.0 0.0 0.00 0.10 0.10 42 1005.8
20260506003017 73 0.0 2.0 0.00 0.10 0.10 41 1005.3